Location: Heidgraben
(53.7081°N, 9.6576°E)
Time: 08:48:22
(UTC+00:00)

Cosmos 1076 Rocket - Pass Details

Date: 05 July 2020
Orbit: 589 x 613 km, 82.5° (Epoch: 14 August)

Event Time Altitude Azimuth Distance (km) Brightness Sun altitude
Exits shadow 21:36:06 14° 163° (SSE) 1,723 5.2 -10.0°
Maximum altitude 21:39:37 45° 94° (E) 829 4.0 -10.2°
Drops below altitude 10° 21:43:42 10° 22° (NNE) 1,945 6.8 -10.5°
Sets 21:45:59 0° 16° (NNE) 2,849 7.8 -10.6°
